EW4553 Weather Reports


Display with metric or nautical units.
time (UTC)temp
F
wind
direction
speed
MPH
gust
MPH
rain 1hr
in
rain 24hr
in
rain mn
in
humidity
%
barometer
mb
20190218081126 49 183 5.0 11.0 0.00 0.00 0.00 95 1013.8
20190218080103 48 219 2.0 7.0 0.00 0.01 0.01 89 1014.4
20190218075626 49 173 5.0 10.0 0.00 0.00 0.00 95 1013.9
20190218074510 48 245 1.0 9.0 0.00 0.01 0.01 89 1014.4
20190218074126 48 200 4.0 10.0 0.00 0.00 0.00 95 1013.8
20190218073021 48 258 2.0 10.0 0.00 0.01 0.01 89 1014.1
20190218072627 48 185 6.0 10.0 0.00 0.00 0.00 94 1013.6
20190218071535 48 242 0.0 8.0 0.00 0.01 0.01 89 1014.1
20190218071127 48 190 3.0 6.0 0.00 0.00 0.00 94 1013.6
20190218070016 48 248 0.0 9.0 0.00 0.01 0.01 89 1014.1
20190218065627 48 193 3.0 9.0 0.00 0.01 0.00 95 1013.5
20190218064510 48 227 1.0 7.0 0.00 0.01 0.01 89 1014.0
20190218064126 48 195 4.0 6.0 0.00 0.01 0.00 95 1013.4
20190218063016 48 269 0.0 4.0 0.00 0.01 0.01 89 1013.9
20190218062626 49 183 4.0 7.0 0.00 0.01 0.00 94 1013.4
20190218061527 48 265 0.0 7.0 0.00 0.01 0.01 89 1014.0
20190218061126 48 192 3.0 5.0 0.00 0.01 0.00 94 1013.3
20190218060006 48 266 1.0 6.0 0.00 0.01 0.01 89 1013.9
20190218055625 48 220 3.0 10.0 0.00 0.01 0.00 93 1013.4
20190218054504 48 242 1.0 6.0 0.00 0.01 0.01 89 1014.0
20190218054126 48 220 4.0 9.0 0.00 0.01 0.00 93 1013.4
20190218053006 48 246 2.0 9.0 0.00 0.01 0.01 89 1013.9
20190218052625 48 192 6.0 13.0 0.00 0.01 0.00 92 1013.3
20190218051524 48 225 5.0 14.0 0.00 0.01 0.01 89 1013.9
20190218051124 48 204 7.0 13.0 0.00 0.01 0.00 95 1013.3
20190218050004 48 214 4.0 11.0 0.00 0.01 0.01 89 1013.8
20190218045625 48 179 9.0 13.0 0.00 0.01 0.00 95 1013.2
20190218044503 48 256 3.0 7.0 0.00 0.01 0.01 89 1013.8
20190218044119 48 186 6.0 11.0 0.00 0.01 0.00 94 1013.1
20190218043154 48 232 2.0 11.0 0.00 0.01 0.01 89 1013.9
20190218042620 47 217 5.0 14.0 0.00 0.01 0.00 93 1013.3
20190218041723 48 252 5.0 12.0 0.01 0.01 0.01 89 1013.9
20190218041120 48 169 5.0 16.0 0.00 0.01 0.00 92 1013.4
20190218040215 48 242 3.0 11.0 0.01 0.01 0.01 89 1014.0
20190218035620 47 226 4.0 11.0 0.00 0.01 0.00 92 1013.6
20190218034654 47 263 7.0 13.0 0.01 0.01 0.01 88 1014.3
20190218034120 47 186 6.0 11.0 0.00 0.01 0.00 91 1013.8
20190218033152 47 277 4.0 10.0 0.01 0.01 0.01 88 1014.3
20190218032620 47 193 6.0 13.0 0.00 0.01 0.00 91 1013.8
20190218031700 47 267 2.0 10.0 0.00 0.00 0.00 88 1014.4
20190218031121 47 196 5.0 10.0 0.00 0.01 0.00 91 1013.8
20190218030150 47 224 2.0 8.0 0.00 0.00 0.00 89 1014.3
20190218025622 47 192 4.0 19.0 0.00 0.01 0.00 91 1013.8
20190218024712 47 239 5.0 15.0 0.00 0.01 0.00 89 1014.8
20190218024121 48 213 9.0 16.0 0.00 0.01 0.00 92 1014.2
20190218023153 49 224 5.0 12.0 0.00 0.01 0.00 90 1014.8
20190218022621 49 180 9.0 16.0 0.00 0.01 0.00 96 1014.2
20190218021654 49 255 6.0 13.0 0.00 0.01 0.00 90 1014.7
20190218021120 49 183 9.0 18.0 0.00 0.01 0.00 96 1014.2
20190218020125 49 203 7.0 14.0 0.00 0.01 0.00 90 1014.8
20190218015621 49 175 10.0 19.0 0.00 0.01 0.00 96 1014.3
20190218014835 49 210 6.0 14.0 0.00 0.01 0.00 90 1014.9
20190218014120 49 185 11.0 20.0 0.00 0.01 0.00 96 1014.3
20190218013114 49 248 5.0 12.0 0.00 0.01 0.00 90 1015.0
20190218012619 49 185 8.0 16.0 0.00 0.01 0.00 96 1014.4
20190218011648 49 229 6.0 14.0 0.00 0.01 0.00 90 1015.0
20190218011119 49 190 7.0 15.0 0.00 0.01 0.00 96 1014.4
20190218010103 49 222 5.0 9.0 0.00 0.01 0.00 90 1015.0
20190218005619 49 173 6.0 15.0 0.00 0.01 0.00 96 1014.5
20190218004620 49 215 4.0 9.0 0.00 0.01 0.00 90 1015.0
20190218004119 49 209 6.0 15.0 0.00 0.01 0.00 96 1014.4
20190218003107 49 247 5.0 14.0 0.00 0.01 0.00 90 1015.1
20190218002618 49 159 10.0 16.0 0.00 0.01 0.00 96 1014.5
20190218001605 49 187 7.0 14.0 0.00 0.01 0.00 90 1015.0
20190218001118 49 182 10.0 18.0 0.00 0.01 0.00 96 1014.5
20190218000120 49 262 6.0 13.0 0.00 0.01 0.01 90 1015.0
20190217235617 49 193 7.0 18.0 0.00 0.01 0.01 96 1014.5
20190217234620 49 251 6.0 13.0 0.00 0.01 0.01 90 1015.0
20190217234117 49 185 9.0 21.0 0.00 0.01 0.01 96 1014.4
20190217233038 49 220 4.0 17.0 0.00 0.01 0.01 90 1014.9
20190217232617 49 197 10.0 20.0 0.00 0.01 0.01 96 1014.4
20190217231539 49 253 3.0 14.0 0.00 0.01 0.01 90 1015.0
20190217231116 49 188 8.0 19.0 0.00 0.01 0.01 97 1014.4
20190217230055 49 227 6.0 15.0 0.00 0.01 0.01 89 1015.1
20190217225614 49 206 7.0 15.0 0.00 0.01 0.01 97 1014.6
20190217224610 49 258 6.0 16.0 0.00 0.01 0.01 89 1015.2
20190217224114 49 180 7.0 16.0 0.00 0.01 0.01 97 1014.6
20190217223047 49 227 4.0 11.0 0.00 0.01 0.01 90 1015.1
20190217222615 49 202 6.0 19.0 0.00 0.01 0.01 97 1014.5
20190217221534 49 236 4.0 11.0 0.00 0.01 0.01 89 1015.0
20190217221115 49 173 8.0 15.0 0.00 0.01 0.01 97 1014.5
20190217220049 49 260 5.0 13.0 0.00 0.01 0.01 89 1015.1
20190217215614 49 197 6.0 17.0 0.00 0.01 0.01 97 1014.5
20190217214535 49 202 6.0 14.0 0.00 0.01 0.01 89 1015.0
20190217214113 49 213 9.0 14.0 0.00 0.01 0.01 96 1014.5
20190217213042 49 229 4.0 10.0 0.00 0.01 0.01 89 1015.0
20190217212613 49 185 8.0 14.0 0.00 0.01 0.01 97 1014.4
20190217211601 49 227 3.0 13.0 0.00 0.01 0.01 89 1015.0
20190217211112 49 183 7.0 17.0 0.00 0.01 0.01 96 1014.3
20190217210045 49 229 3.0 14.0 0.00 0.01 0.01 89 1014.9
20190217205612 49 195 6.0 15.0 0.00 0.01 0.01 96 1014.3
20190217204526 49 227 5.0 13.0 0.00 0.01 0.01 89 1014.8
20190217204112 49 183 10.0 17.0 0.00 0.01 0.01 96 1014.3
20190217203055 49 211 4.0 15.0 0.00 0.01 0.01 89 1014.7
20190217202611 49 213 9.0 15.0 0.00 0.01 0.01 96 1014.2
20190217201529 49 234 3.0 11.0 0.00 0.01 0.01 89 1014.6
20190217201111 49 186 6.0 15.0 0.00 0.01 0.01 96 1014.0
20190217200041 49 220 5.0 15.0 0.00 0.01 0.01 89 1014.5
20190217195611 49 189 9.0 17.0 0.00 0.01 0.01 96 1013.9
20190217194557 49 263 7.0 15.0 0.00 0.01 0.01 90 1014.4
20190217194111 49 223 10.0 18.0 0.00 0.01 0.01 96 1013.9
20190217193040 49 218 5.0 11.0 0.00 0.01 0.01 89 1014.6
20190217192610 49 192 7.0 14.0 0.00 0.01 0.01 97 1014.1
20190217191538 49 214 6.0 12.0 0.00 0.01 0.01 89 1014.5
20190217191110 49 182 6.0 16.0 0.00 0.01 0.01 96 1013.9
20190217190044 49 215 2.0 16.0 0.00 0.01 0.01 89 1014.3
20190217185610 49 189 7.0 13.0 0.00 0.01 0.01 96 1013.8
20190217184536 49 258 2.0 12.0 0.00 0.01 0.01 89 1014.2
20190217184111 49 206 6.0 13.0 0.00 0.01 0.01 95 1013.6
20190217183024 49 263 2.0 12.0 0.00 0.01 0.01 89 1014.1
20190217182610 49 166 7.0 13.0 0.00 0.01 0.01 95 1013.6
20190217181528 49 228 5.0 11.0 0.00 0.01 0.01 89 1014.1
20190217181111 49 192 6.0 12.0 0.00 0.01 0.01 95 1013.5
20190217180056 49 227 4.0 11.0 0.00 0.01 0.01 89 1014.1
20190217175610 49 200 6.0 13.0 0.00 0.01 0.01 96 1013.6
20190217174524 49 227 4.0 12.0 0.00 0.01 0.01 89 1014.0
20190217174111 49 183 7.0 17.0 0.00 0.01 0.01 95 1013.4
20190217173028 49 226 8.0 13.0 0.00 0.01 0.01 89 1013.9
20190217172611 50 206 8.0 19.0 0.00 0.01 0.01 95 1013.4
20190217171556 50 213 8.0 13.0 0.00 0.01 0.01 89 1014.0
20190217171111 50 176 9.0 19.0 0.00 0.01 0.01 95 1013.4
20190217170039 50 223 6.0 16.0 0.00 0.01 0.01 89 1013.7
20190217165610 50 175 10.0 17.0 0.00 0.01 0.01 95 1013.3
20190217164548 50 242 7.0 13.0 0.00 0.01 0.01 89 1013.7
20190217164110 50 190 10.0 18.0 0.00 0.01 0.01 94 1013.1
20190217163045 50 207 6.0 13.0 0.00 0.01 0.01 89 1013.7
20190217162611 51 186 9.0 15.0 0.00 0.01 0.01 94 1013.3
20190217161543 50 234 7.0 13.0 0.00 0.01 0.01 89 1013.7
20190217161110 51 197 8.0 17.0 0.00 0.01 0.01 94 1013.1
20190217160044 50 227 6.0 12.0 0.00 0.01 0.01 89 1013.6
20190217155611 51 189 7.0 16.0 0.00 0.01 0.01 94 1013.2
20190217154514 50 209 7.0 15.0 0.00 0.01 0.01 89 1013.7
20190217154110 51 183 9.0 20.0 0.00 0.01 0.01 93 1013.1
20190217153010 51 222 6.0 14.0 0.00 0.01 0.01 89 1013.7
20190217152610 51 195 6.0 19.0 0.00 0.01 0.01 92 1013.2
20190217151553 51 243 8.0 16.0 0.00 0.01 0.01 89 1013.7
20190217151110 51 190 8.0 16.0 0.00 0.01 0.01 92 1013.1
20190217150028 51 219 5.0 14.0 0.00 0.01 0.01 89 1013.7
20190217145610 52 197 9.0 16.0 0.00 0.01 0.01 92 1013.1
20190217144507 51 218 8.0 14.0 0.00 0.01 0.01 89 1013.7
20190217144110 52 186 10.0 16.0 0.00 0.01 0.01 92 1013.1
20190217143007 51 231 5.0 13.0 0.00 0.01 0.01 89 1013.6
20190217142610 52 189 7.0 14.0 0.00 0.01 0.01 91 1013.1
20190217141519 52 225 6.0 11.0 0.00 0.01 0.01 89 1013.7
20190217141107 52 188 8.0 15.0 0.00 0.01 0.01 93 1013.1
20190217140001 51 239 5.0 10.0 0.00 0.01 0.01 89 1013.6
20190217135607 52 197 7.0 13.0 0.00 0.01 0.01 94 1013.1
20190217134639 51 215 5.0 12.0 0.00 0.01 0.01 89 1013.6
20190217134108 52 202 6.0 15.0 0.00 0.01 0.01 95 1013.1
20190217133218 51 292 4.0 14.0 0.00 0.01 0.01 89 1013.6
20190217132607 52 179 8.0 16.0 0.00 0.01 0.01 96 1013.1
20190217131710 51 234 9.0 15.0 0.00 0.01 0.01 89 1013.6
20190217131108 52 180 8.0 16.0 0.00 0.01 0.01 96 1012.9
20190217130209 51 220 5.0 11.0 0.00 0.01 0.01 89 1013.5
20190217125608 51 185 9.0 15.0 0.00 0.01 0.01 95 1012.9
20190217124730 51 239 5.0 13.0 0.00 0.01 0.01 89 1013.5
20190217124107 51 190 9.0 20.0 0.00 0.01 0.01 95 1013.0
20190217123202 51 244 6.0 14.0 0.00 0.01 0.01 89 1013.6
20190217122607 51 204 9.0 16.0 0.00 0.01 0.01 95 1012.9
20190217121547 51 279 7.0 12.0 0.00 0.01 0.01 89 1013.5
20190217121105 51 173 9.0 15.0 0.00 0.01 0.01 96 1012.9
20190217120112 51 223 7.0 16.0 0.00 0.01 0.01 89 1013.7
20190217115605 51 197 9.0 18.0 0.00 0.01 0.01 96 1012.9
20190217114607 50 250 8.0 15.0 0.00 0.01 0.01 89 1013.6
20190217114105 51 192 9.0 16.0 0.00 0.01 0.01 96 1013.0
20190217113109 50 207 6.0 14.0 0.00 0.01 0.01 89 1013.6
20190217112605 51 189 9.0 20.0 0.00 0.01 0.01 96 1012.9
20190217111610 50 218 7.0 15.0 0.00 0.01 0.01 89 1013.6
20190217111104 50 189 8.0 17.0 0.00 0.01 0.01 96 1013.0
20190217110052 50 231 8.0 12.0 0.00 0.01 0.01 89 1013.7
20190217105604 50 203 9.0 15.0 0.00 0.01 0.01 97 1012.9
20190217104534 49 253 4.0 10.0 0.00 0.01 0.01 89 1013.6
20190217104104 49 183 6.0 15.0 0.00 0.01 0.01 96 1012.9
20190217103032 49 217 4.0 11.0 0.00 0.01 0.01 89 1013.4
20190217102605 49 197 8.0 13.0 0.00 0.01 0.01 96 1012.8
20190217101526 49 284 3.0 7.0 0.00 0.01 0.01 89 1013.3
20190217101105 49 164 6.0 10.0 0.00 0.01 0.01 96 1012.6
20190217100024 49 224 1.0 7.0 0.00 0.01 0.01 89 1013.2
20190217095605 49 192 4.0 9.0 0.00 0.01 0.01 95 1012.6
20190217094503 49 233 1.0 5.0 0.00 0.01 0.01 89 1013.2
20190217094105 49 179 5.0 10.0 0.00 0.01 0.01 95 1012.5
20190217093207 49 237 2.0 9.0 0.00 0.01 0.01 89 1013.3
20190217092604 49 164 7.0 12.0 0.00 0.01 0.01 95 1012.6
20190217091644 49 201 3.0 13.0 0.00 0.01 0.01 89 1013.3
20190217091105 49 183 7.0 14.0 0.00 0.01 0.01 95 1012.8
20190217090301 49 229 7.0 15.0 0.00 0.01 0.01 89 1013.4
20190217085604 49 182 8.0 14.0 0.00 0.01 0.01 95 1012.6
20190217084812 48 244 7.0 11.0 0.00 0.01 0.01 89 1013.4
20190217084103 48 186 8.0 12.0 0.00 0.01 0.01 95 1012.7
20190217083203 48 236 6.0 13.0 0.00 0.01 0.01 89 1013.3
20190217082604 48 185 8.0 12.0 0.00 0.01 0.01 95 1012.6
20190217081622 48 221 6.0 12.0 0.00 0.01 0.01 89 1013.1